Notices

What's New in latest Release from April 7th, 2021:

- Updated Glossary, including Speed of Maximum Gust, and Total Hourly Precipitation

- Updated national and regional climate services offices contacts and prices information

- Addition of station inventory lists for 1981-2010, 1971-2000, and 1961-1990 Normals.

If you haven't already, please take our survey and provide feedback about our website: https://eccc.sondage-survey.ca/f/LanguageSelection.aspx?s=442ca660-fcf1-47c0-95a9-59707d6fd709

Hourly Data Report for April 06, 2021

ALGONQUIN PARK EAST GATE
ONTARIO
Current Station Operator: ECCC - MSC

45°32'00.000" N
78°16'00.000" W
397.00 m
6080192
71581
TNK

Download Data

Hourly Data (April 2021)
Hourly Data Report for April 6, 2021
TIME
LST
Temp Definition
°C
Dew Point Definition
°C
Rel Hum Definition
%
Precip. Amount Definition
mm

Wind Dir Definition
10's deg

Wind Spd Definition
km/h
Visibility Definition
km
Stn Press Definition
kPa
Hmdx Definition


Wind Chill Definition


Weather Definition


00:00 -3.6 -6.2 82 0.0   0   97.12     LegendNANA
01:00 -4.3 -6.4 85 0.0   0   97.11     LegendNANA
02:00 -5.0 -6.8 87 0.0   0   97.07     LegendNANA
03:00 -5.4 -7.0 89 0.0   0   97.02     LegendNANA
04:00 -6.2 -7.7 89 0.0   0   97.08     LegendNANA
05:00 -6.3 -7.7 90 0.0   0   97.06     LegendNANA
06:00 -6.6 -7.9 90 0.0   0   97.12     LegendNANA
07:00 -3.3 -5.0 88 0.0   0   97.14     LegendNANA
08:00 1.2 -3.0 74 0.0   0   97.14     LegendNANA
09:00 6.0 -9.1 33 0.0 12 10   97.09     LegendNANA
10:00 8.7 -9.5 27 0.0 11 5   97.04     LegendNANA
11:00 9.7 -11.2 22 0.0 13 3   97.01     LegendNANA
12:00 12.4 -13.8 15 0.0 12 7   96.90     LegendNANA
13:00 13.8 -14.6 13 0.0 10 7   96.85     LegendNANA
14:00 14.1 -14.1 13 0.0 22 4   96.85     LegendNANA
15:00 15.1 -11.8 14 0.0 15 5   96.83     LegendNANA
16:00 14.5 -9.8 18 0.0 11 5   96.77     LegendNANA
17:00 10.5 -4.6 34 0.0   0   96.73     LegendNANA
18:00 7.5 2.1 68 0.0 0 1   96.80     LegendNANA
19:00 6.4 4.3 86 0.6   0   96.89     LegendNANA
20:00 5.8 4.4 91 2.3 7 1   96.97     LegendNANA
21:00 5.8 4.5 91 1.4 2 2   96.93     LegendNANA
22:00 5.4 4.0 91 0.2 10 3   96.93     LegendNANA
23:00 4.9 3.7 92 0.0 0 1   96.93     LegendNANA

Notes on Data Quality.

Legend

  • E = Estimated
  • M = Missing
  • NA = Not Available*
  • [empty] = Indicates an unobserved value
Date modified: